Вернуться в каталог

SL-14 DEB

АктивенPO
NORAD 45308·DEBRIS·🇷🇺 Russia

Запущен Aug 15, 1991 с Plesetsk Cosmodrome

Loading…

Ближайшие Пролёты (ближайшие 24 часа)

TLE

СвежийSource: Space-Track

Эпоха: Sep 13, 2026, 18:17 UTC

1 45308U 91056AW  26256.76245283  .00000342  00000-0  78071-3 0  9994
2 45308  82.5717  66.9706 0029217 180.6532 179.4561 13.23080704316070

Отслеживайте SL-14 DEB в реальном времени с AllMySat

Download on the App Store